« Back
NWS Peachtree City, Ga » Text Product » GA Regional Weather Roundup


Printer-friendly Version
Current Version              Previous Versions:   1  2  3  4  5  6  7  8  9  

Regional Weather Roundup

681
ASUS42 KFFC 042203
RWRGA
WEATHER ROUNDUP FOR GEORGIA
NATIONAL WEATHER SERVICE PEACHTREE CITY GA
600 PM EDT FRI SEP 04 2015

NOTE: "FAIR" INDICATES FEW OR NO CLOUDS BELOW 12,000 FEET WITH NO
SIGNIFICANT WEATHER AND/OR OBSTRUCTIONS TO VISIBILITY.

* = USE WITH CAUTION. THE STATIONS MARKED WITH AN ASTERISK MAY NOT
REPORT WEATHER SUCH AS PRECIPITATION, FOG, OR THUNDER AND ARE NOT
QUALITY CONTROLLED BY NWS.

THE REMARK "TC" DENOTES TEMPERATURE READING IN DEGREES CELSIUS.

GAZ001>058-042300-
NORTH GEORGIA

CITY           SKY/WX    TMP DP  RH WIND       PRES   REMARKS
ATLANTA        LGT RAIN  80  69  69 NW8       29.98S
ATHENS         SUNNY     92  66  42 NE5       29.97R HX  94
CHAMBLEE       PTSUNNY   84  69  60 W9        29.99R
PEACHTREE CITY MOSUNNY   90  69  50 NW5       29.97S HX  94
ROME           SUNNY     93  65  39 N6        29.95F HX  95
WEST ATLANTA   MOSUNNY   78  66  66 CALM      29.98F
GAINESVILLE    MOSUNNY   86  67  52 CALM      30.02R
CARTERSVILLE   MOSUNNY   86  73  65 E3        29.98S HX  93


CITY           SKY/WX    TMP DP  RH WIND       PRES   REMARKS
DALTON*        SUNNY     88  68  51 NE6       29.98R HX  91
LAWRENCEVILLE* SUNNY     91  64  40 CALM      29.99S HX  93
MARIETTA       PTSUNNY   78  66  68 W7        30.00R THUNDER
KENNESAW*      PTSUNNY   82  63  51 W9        30.01R
BLAIRSVILLE*     N/A     86  23  10 N3        30.05R
$$

GAZ059>098-102>109-042300-
CENTRAL GEORGIA

CITY           SKY/WX    TMP DP  RH WIND       PRES   REMARKS
AUGUSTA-BUSH   MOSUNNY   83  71  67 S9G21     29.94R
AUGUSTA-DANIEL MOSUNNY   90  69  50 E10G18    29.96R HX  94
COLUMBUS       MOSUNNY   92  65  40 NE6       29.93S HX  94
MACON          SUNNY     93  68  43 CALM      29.93R HX  97
ROBINS AFB     SUNNY     93  70  46 N3        29.92S HX  99


CITY           SKY/WX    TMP DP  RH WIND       PRES   REMARKS
LAGRANGE*      MOSUNNY   94  75  54 N5        29.96S HX 105
MILLEDGEVILLE* SUNNY     88  70  55 CALM      29.96R HX  92
$$

GAZ099>101-110>166-042300-
SOUTH GEORGIA

CITY           SKY/WX    TMP DP  RH WIND       PRES   REMARKS
SAVANNAH       CLOUDY    80  71  74 CALM      29.96R
VALDOSTA       PTSUNNY   89  74  60 CALM      29.92S HX  98
ALMA           MOSUNNY   92  71  50 N6        29.92R HX  98
ST SIMONS      PTSUNNY   84  76  76 E5        29.94R HX  93
FT STEWART     CLOUDY    85  74  69 CALM      29.92R HX  92
ALBANY         CLOUDY    92  68  45 NW10      29.94R HX  96
HUNTER AFB     CLOUDY    80  76  88 E1        29.94R
MOODY AFB      PTSUNNY   91  70  50 W3        29.92R HX  96
BRUNSWICK      PTSUNNY   81  73  78 CALM      29.95R


CITY           SKY/WX    TMP DP  RH WIND       PRES   REMARKS
BAINBRIDGE*    PTSUNNY   91  73  55 W6        29.93S HX 100
MOULTRIE*      MOSUNNY   91  70  49 S5        29.94S HX  97
VIDALIA*       CLOUDY    84  72  65 NE5       29.94S
WAYCROSS*      TSTM      84  77  78 NE7       29.92R HX  94
DOUGLAS*       MOSUNNY   93  70  46 NE5       29.93S HX  99
$$



USA.gov is the U.S. government's official web portal to all federal, state and local government web resources and services.